Weather History for Wheeling, WV

Change the Weather History Date:

Saturday, January 4, 2014

  Actual Average Record
Temperature  
Mean Temperature 22 °F 29 °F  
Max Temperature 36 °F 36 °F 66 °F (1997)
Min Temperature 8 °F 22 °F 8 °F (2014)
Degree Days  
Heating Degree Days 43 36  
Month to date heating degree days 173 144  
Since 1 July heating degree days 2311 2269  
Cooling Degree Days 0    
Month to date cooling degree days 0  
Year to date cooling degree days 0  
Moisture  
Dew Point 6 °F    
Average Humidity 56    
Maximum Humidity 80    
Minimum Humidity 32    
Precipitation  
Precipitation 0.00 in 0.10 in 1.68 in (2004)
Month to date precipitation 0.06 0.42  
Sea Level Pressure  
Sea Level Pressure 30.23 in    
Wind  
Wind Speed 10 mph (South)    
Max Wind Speed 22 mph    
Max Gust Speed 28 mph    
Visibility 10 miles    
Events      
T = Trace of Precipitation, MM = Missing Value Source: NWS Daily Summary

Daily Weather History Graph

Daily Weather History Graph

Search for Another Location

Airport:

Trip Planner

Search our weather history database for the weather conditions in past years. The results will help you decide how hot, cold, wet, or windy it might be!

Date:

Astronomy

Jan. 04, 2014 Rise Set
Actual Time 7:45 AM EST 5:10 PM EST
Civil Twilight 7:14 AM EST 5:40 PM EST
Nautical Twilight 6:40 AM EST 6:14 PM EST
Astronomical Twilight 6:07 AM EST 6:47 PM EST
Moon 9:49 AM EST (1/4) 9:28 PM EST (1/4)
Length of Visible Light 10h 25m
Length of Day
9h 25m
Waxing Crescent, 15% of the Moon is Illuminated
Jan 4
Waxing Crescent
Jan 7
First Quarter
Jan 15
Full
Jan 24
Last Quarter
Jan 30
New

Hourly Weather History & Observations

Time (EST) Temp. Windchill Dew Point Humidity Pressure Visibility Wind Dir Wind Speed Gust Speed Precip Events Conditions
12:53 AM 10.0 °F -1.9 °F 3.0 °F 73% 30.35 in 10.0 mi SSE 8.1 mph - N/A   Overcast
1:53 AM 9.0 °F -2.2 °F 3.0 °F 77% 30.34 in 10.0 mi SSE 6.9 mph - N/A   Clear
2:53 AM 9.0 °F -2.2 °F 1.9 °F 73% 30.34 in 10.0 mi SSE 6.9 mph - N/A   Clear
3:53 AM 8.1 °F -4.3 °F 1.9 °F 76% 30.32 in 10.0 mi SE 8.1 mph - N/A   Clear
4:53 AM 8.1 °F -3.2 °F 1.9 °F 76% 30.31 in 10.0 mi SSE 6.9 mph - N/A   Clear
5:53 AM 10.0 °F -2.9 °F 1.9 °F 70% 30.31 in 10.0 mi South 9.2 mph - N/A   Clear
6:53 AM 10.9 °F -0.8 °F 1.9 °F 67% 30.30 in 10.0 mi SSE 8.1 mph - N/A   Clear
7:53 AM 12.9 °F 0.7 °F 1.0 °F 59% 30.29 in 10.0 mi South 9.2 mph - N/A   Clear
8:53 AM 17.1 °F 5.8 °F 1.9 °F 52% 30.30 in 10.0 mi South 9.2 mph - N/A   Clear
9:53 AM 23.0 °F 10.6 °F 3.0 °F 42% 30.28 in 10.0 mi SSW 13.8 mph 20.7 mph N/A   Clear
10:53 AM 27.0 °F 14.7 °F 3.9 °F 37% 30.27 in 10.0 mi SSW 16.1 mph 25.3 mph N/A   Clear
11:53 AM 30.0 °F 19.1 °F 6.1 °F 36% 30.22 in 10.0 mi SSW 15.0 mph 23.0 mph N/A   Clear
12:53 PM 33.1 °F 23.4 °F 7.0 °F 34% 30.19 in 10.0 mi SSW 13.8 mph 20.7 mph N/A   Clear
1:53 PM 34.0 °F 24.2 °F 8.1 °F 34% 30.16 in 10.0 mi SSW 15.0 mph 27.6 mph N/A   Clear
2:53 PM 35.1 °F 26.9 °F 10.0 °F 35% 30.16 in 10.0 mi SSW 11.5 mph 19.6 mph N/A   Clear
3:53 PM 35.1 °F 27.4 °F 10.0 °F 35% 30.15 in 10.0 mi SSW 10.4 mph - N/A   Clear
4:53 PM 34.0 °F 27.2 °F 9.0 °F 35% 30.16 in 10.0 mi SSW 8.1 mph - N/A   Clear
5:53 PM 34.0 °F 28.0 °F 9.0 °F 35% 30.14 in 10.0 mi South 6.9 mph - N/A   Clear
6:53 PM 32.0 °F 27.5 °F 9.0 °F 38% 30.13 in 10.0 mi South 4.6 mph - N/A   Clear
7:53 PM 33.1 °F 26.9 °F 9.0 °F 37% 30.14 in 10.0 mi South 6.9 mph - N/A   Clear
8:53 PM 32.0 °F 23.6 °F 9.0 °F 38% 30.13 in 10.0 mi South 10.4 mph - N/A   Clear
9:53 PM 32.0 °F 25.6 °F 9.0 °F 38% 30.14 in 10.0 mi South 6.9 mph - N/A   Clear
10:53 PM 30.9 °F 25.2 °F 9.0 °F 40% 30.15 in 10.0 mi South 5.8 mph - N/A   Clear
11:53 PM 30.9 °F 21.2 °F 10.0 °F 42% 30.14 in 10.0 mi South 12.7 mph - N/A   Scattered Clouds